Date String (YYYY-MM-DD hh:mm:ss) UTC,Instrument flags,Ambient pressure (hPa),Sample flow (lpm),Bypass flow (lpm),Sample temperature (°C),Ambient temperature (°C),ASC tube jacket temperature (°C),LED temperature (°C),Box temperature (°C),Sample RH (%),Span deviation,Mass concentration (μg/m³),Mass concentration (μg/m³),Mass concentration (μg/m³)
DateTimeUTC,F1_M11,P_M11,Q1_M11,Q2_M11,T1_M11,T2_M11,T3_M11,T4_M11,T5_M11,U1_M11,ZSPAN_M11,X0_M11,X2_M11,X1_M11
2022-03-26 17:00:00,,0824.0,5.00,0.00,28.5,27.7,00.0,37.3,30.3,15.3,0000.0,0022.12,0005.89,0003.98
2022-03-26 17:01:00,,0824.0,5.01,0.00,28.5,27.7,00.0,37.3,30.3,15.2,0000.8,0022.08,0006.06,0004.10
2022-03-26 17:02:00,,0823.9,4.98,0.00,28.5,27.7,00.0,37.3,30.4,15.0,0003.7,0022.31,0006.17,0004.20
2022-03-26 17:03:00,,0823.9,5.00,0.00,28.5,27.7,00.0,37.4,30.4,15.8,0004.0,0022.71,0006.41,0004.34
2022-03-26 17:04:00,,0823.8,5.00,0.00,28.6,27.8,00.0,37.4,30.4,15.5,0003.9,0023.64,0006.60,0004.47
2022-03-26 17:05:00,,0823.9,4.99,0.00,28.6,27.8,00.0,37.4,30.4,15.1,0004.0,0025.21,0006.69,0004.58
2022-03-26 17:06:00,,0823.9,5.01,0.00,28.6,27.8,00.0,37.4,30.4,15.6,0004.0,0026.07,0006.81,0004.70
2022-03-26 17:07:00,,0824.0,5.00,0.00,28.6,27.8,00.0,37.4,30.4,15.8,0004.2,0025.57,0006.91,0004.79
2022-03-26 17:08:00,,0824.0,4.99,0.00,28.6,27.8,00.0,37.4,30.4,15.4,0004.2,0025.45,0006.97,0004.87
2022-03-26 17:09:00,,0824.1,4.99,0.00,28.6,27.8,00.0,37.5,30.5,15.5,0004.6,0024.72,0006.98,0004.93
2022-03-26 17:10:00,,0824.1,5.02,0.00,28.7,27.8,00.0,37.5,30.5,15.5,0003.9,0023.19,0007.06,0005.00
2022-03-26 17:11:00,,0824.0,5.00,0.00,28.7,27.9,00.0,37.5,30.5,15.8,0004.2,0022.33,0007.10,0005.05
2022-03-26 17:12:00,,0824.0,5.00,0.00,28.7,27.9,00.0,37.5,30.5,15.7,0003.3,0023.54,0007.16,0005.10
2022-03-26 17:13:00,,0824.0,5.00,0.00,28.7,27.9,00.0,37.5,30.5,15.7,0000.6,0023.35,0007.20,0005.14
2022-03-26 17:14:00,,0824.0,4.99,0.00,28.7,27.9,00.0,37.5,30.5,15.9,-001.6,0024.13,0007.19,0005.17
2022-03-26 17:15:00,,0824.0,4.99,0.00,28.7,27.9,00.0,37.6,30.5,15.7,-001.6,0023.66,0007.23,0005.22
2022-03-26 17:16:00,,0823.9,5.02,0.00,28.7,27.9,00.0,37.6,30.5,15.3,-001.4,0022.49,0007.35,0005.30
2022-03-26 17:17:00,,0823.9,4.99,0.00,28.7,27.9,00.0,37.6,30.6,14.8,-002.1,0021.78,0007.31,0005.33
2022-03-26 17:18:00,,0823.9,5.01,0.00,28.8,28.0,00.0,37.6,30.6,14.8,-002.0,0021.89,0007.31,0005.35
2022-03-26 17:19:00,,0823.9,5.00,0.00,28.8,28.0,00.0,37.6,30.6,15.1,-001.0,0022.57,0007.34,0005.38
2022-03-26 17:20:00,,0823.9,5.01,0.00,28.8,28.0,00.0,37.6,30.6,14.9,-001.4,0024.56,0007.45,0005.39
2022-03-26 17:21:00,,0823.9,4.99,0.00,28.8,28.0,00.0,37.6,30.6,15.6,-001.2,0025.48,0007.49,0005.40
2022-03-26 17:22:00,,0823.9,5.01,0.00,28.8,28.0,00.0,37.7,30.6,15.2,-000.6,0026.13,0007.57,0005.42
2022-03-26 17:23:00,,0823.9,4.98,0.00,28.8,28.0,00.0,37.7,30.6,15.3,-000.8,0024.66,0007.67,0005.46
2022-03-26 17:24:00,,0823.8,5.00,0.00,28.8,28.1,00.0,37.7,30.6,15.4,-000.3,0023.78,0007.69,0005.48
2022-03-26 17:25:00,,0823.9,5.02,0.00,28.9,28.1,00.0,37.7,30.7,14.9,0001.4,0023.34,0007.65,0005.49
2022-03-26 17:26:00,,0823.8,4.99,0.00,28.9,28.1,00.0,37.7,30.7,15.7,0001.0,0022.79,0007.62,0005.51
2022-03-26 17:27:00,,0823.8,5.00,0.00,28.9,28.1,00.0,37.7,30.7,14.6,0000.2,0023.27,0007.61,0005.51
2022-03-26 17:28:00,,0823.8,5.00,0.00,28.9,28.1,00.0,37.7,30.7,14.7,0000.4,0023.57,0007.60,0005.49
2022-03-26 17:29:00,,0823.8,5.01,0.00,28.9,28.1,00.0,37.8,30.7,15.6,-000.2,0022.88,0007.67,0005.54
2022-03-26 17:30:00,,0823.8,4.99,0.00,28.9,28.1,00.0,37.8,30.7,15.0,-000.0,0023.00,0007.69,0005.59
2022-03-26 17:31:00,,0823.8,4.99,0.00,28.9,28.1,00.0,37.8,30.7,14.4,0000.1,0021.49,0007.66,0005.57
2022-03-26 17:32:00,,0823.8,5.02,0.00,29.0,28.2,00.0,37.8,30.8,15.0,-000.4,0020.01,0007.59,0005.57
2022-03-26 17:33:00,,0823.8,4.99,0.00,29.0,28.2,00.0,37.8,30.8,14.6,-000.5,0019.08,0007.54,0005.55
2022-03-26 17:34:00,,0823.7,4.99,0.00,29.0,28.2,00.0,37.8,30.8,14.3,-000.7,0018.45,0007.37,0005.48
2022-03-26 17:35:00,,0823.7,5.02,0.00,29.0,28.2,00.0,37.8,30.8,14.6,0000.7,0017.74,0007.30,0005.40
2022-03-26 17:36:00,,0823.6,4.99,0.00,29.0,28.2,00.0,37.9,30.8,14.6,0000.5,0017.23,0007.35,0005.38
2022-03-26 17:37:00,,0823.7,4.99,0.00,29.0,28.2,00.0,37.9,30.8,13.4,0001.6,0016.84,0007.30,0005.27
2022-03-26 17:38:00,,0823.7,5.02,0.00,29.1,28.3,00.0,37.9,30.8,13.1,0001.3,0016.41,0007.12,0005.15
2022-03-26 17:39:00,,0823.7,4.99,0.00,29.1,28.3,00.0,37.9,30.9,13.9,0001.7,0016.17,0007.04,0005.10
2022-03-26 17:40:00,,0823.7,5.00,0.00,29.1,28.3,00.0,37.9,30.9,13.6,0002.6,0016.29,0007.03,0005.03
2022-03-26 17:41:00,,0823.6,5.01,0.00,29.1,28.3,00.0,37.9,30.9,13.0,0002.3,0015.73,0006.90,0004.89
2022-03-26 17:42:00,,0823.6,5.02,0.00,29.1,28.4,00.0,38.0,30.9,12.7,0002.7,0015.00,0006.78,0004.78
2022-03-26 17:43:00,,0823.6,4.99,0.00,29.1,28.4,00.0,38.0,30.9,13.1,0003.5,0015.48,0006.71,0004.63
2022-03-26 17:44:00,,0823.6,5.01,0.00,29.1,28.4,00.0,38.0,31.0,13.1,0003.6,0015.59,0006.52,0004.47
2022-03-26 17:45:00,,0823.6,4.99,0.00,29.2,28.4,00.0,38.0,31.0,13.2,0003.5,0015.42,0006.38,0004.36
2022-03-26 17:46:00,,0823.6,4.99,0.00,29.2,28.4,00.0,38.0,31.0,13.1,0001.9,0015.84,0006.23,0004.28
2022-03-26 17:47:00,,0823.6,5.01,0.00,29.2,28.5,00.0,38.0,31.0,13.5,0000.5,0015.88,0006.14,0004.18
2022-03-26 17:48:00,,0823.6,5.01,0.00,29.2,28.5,00.0,38.1,31.0,13.5,0000.0,0016.12,0006.09,0004.16
2022-03-26 17:49:00,,0823.6,4.99,0.00,29.2,28.5,00.0,38.1,31.0,13.0,0000.0,0016.72,0006.07,0004.12
2022-03-26 17:50:00,,0823.6,5.01,0.00,29.3,28.5,00.0,38.1,31.0,13.3,0000.0,0017.42,0006.06,0004.04
2022-03-26 17:51:00,,0823.4,4.98,0.00,29.3,28.5,00.0,38.1,31.1,13.4,0000.0,0017.55,0005.99,0003.96
2022-03-26 17:52:00,,0823.4,5.01,0.00,29.3,28.5,00.0,38.1,31.1,13.4,0000.0,0017.37,0005.99,0003.94
2022-03-26 17:53:00,,0823.3,5.00,0.00,29.3,28.5,00.0,38.1,31.1,12.4,0000.0,0017.86,0006.03,0003.92
2022-03-26 17:54:00,,0823.4,4.99,0.00,29.3,28.6,00.0,38.2,31.1,12.4,0000.0,0017.22,0005.92,0003.88
2022-03-26 17:55:00,,0823.4,5.00,0.00,29.3,28.6,00.0,38.2,31.1,12.0,0000.0,0017.33,0005.84,0003.80
2022-03-26 17:56:00,,0823.5,5.02,0.00,29.4,28.6,00.0,38.2,31.1,12.2,0000.0,0018.63,0005.84,0003.75
2022-03-26 17:57:00,,0823.5,4.99,0.00,29.4,28.6,00.0,38.2,31.2,12.7,0000.0,0019.13,0005.76,0003.71
2022-03-26 17:58:00,,0823.4,5.00,0.00,29.4,28.6,00.0,38.2,31.2,13.1,0000.0,0019.35,0005.69,0003.66
2022-03-26 17:59:00,,0823.4,5.01,0.00,29.4,28.7,00.0,38.2,31.2,13.3,0000.0,0019.96,0005.63,0003.61
